Project,Study,Ord_Occ,Event_Num,Cast_ID,Date_Time_UTC,Date_Time_PST,Lat_Dec,Lon_Dec,Sta_ID,Line,Sta,Depth,Pressure,PrQ,Temp1,Temp1Q,Temp2,Temp2Q,TempAve,Salt1,Salt1Q,Salt1_Corr,Salt2,Salt2Q,Salt2_Corr,SaltAve_Corr,Ox1,Ox1Q,Ox1_CruiseCorr,Ox1_StaCorr,Ox2,Ox2Q,Ox2_CruiseCorr,Ox2_StaCorr,OxAve_StaCorr,Ox1uM,Ox1uM_CruiseCorr,Ox1uM_StaCorr,Ox2uM,Ox2uM_CruiseCorr,Ox2uM_StaCorr,OxAveuM_StaCorr,FluorV,FluorQ,EstChl_CruiseCorr,EstChl_StaCorr,ISUSV,ISUSQ,EstNO3_CruiseCorr,EstNO3_StaCorr,SigThetaTS1,SigThetaTS1Q,SigThetaTS2,SigThetaTS2Q,BAT,XMiss,TransQ,pH,pHQ,SPAR,SPARQ,PAR,PARQ,PoT1,PoT2,DynHt,SVA,OxSat1,OxSat2,BTL_Depth,BTL_Temp,SaltB,OxB,OxBuM,Chl-a,Phaeo,NO3,NO2,NH4,PO4,SIL
CalCOFI,2105SH,008,,2105_008d,05-May-2021 18:02:44,05-May-2021 10:02:44,32.01361,-119.23326,093.3 055.0,093.3,055.0,3.000,3.021,,14.1525,,14.1523,,14.1524,33.7176,,33.7188,33.7182,,33.7201,33.7195,5.7447,,6.0739,6.0915,5.8220,,6.0898,6.0900,6.0908,250.260,264.1206,261.7973,253.630,275.4100,262.1949,261.9961,0.0507,,0.1557,0.2435,2.6184,,3.7972,,25.1644,,25.1649,,,,,,,,,,,14.1521,14.1518,0.0019,279.218,98.435,99.760,3,14.158,33.7354,6.114,266.35,0.748,0.195,5.28,0.105,0.58,0.63,3.42
CalCOFI,2105SH,008,,2105_008d,05-May-2021 18:02:58,05-May-2021 10:02:58,32.01360,-119.23324,093.3 055.0,093.3,055.0,4.000,4.028,,14.0894,,14.0903,,14.0899,33.7266,,33.7278,33.7248,,33.7267,33.7273,5.7729,,6.1034,6.1209,5.8426,,6.1112,6.1112,6.1161,251.486,265.4023,263.0717,254.520,276.7341,263.1100,263.0909,0.0548,,0.1860,0.2693,2.6202,,3.7972,,25.1846,,25.1830,,,,,,,,,,,14.0888,14.0897,0.0064,277.324,98.799,99.991,,,,,,,,,,,,
CalCOFI,2105SH,008,,2105_008d,05-May-2021 18:03:01,05-May-2021 10:03:01,32.01360,-119.23324,093.3 055.0,093.3,055.0,5.000,5.035,,14.0692,,14.0687,,14.0690,33.7276,,33.7288,33.7261,,33.7280,33.7284,5.7550,,6.0847,6.1022,5.8552,,6.1242,6.1242,6.1132,250.703,264.5837,262.2578,255.070,275.8884,263.6756,262.9667,0.0611,,0.2325,0.3091,2.6210,,3.7972,,25.1896,,25.1885,,,,,,,,,,,14.0685,14.0680,0.0093,276.875,98.452,100.165,,,,,,,,,,,,
CalCOFI,2105SH,008,,2105_008d,05-May-2021 18:03:03,05-May-2021 10:03:03,32.01360,-119.23323,093.3 055.0,093.3,055.0,6.000,6.042,,14.0436,,14.0439,,14.0438,33.7291,,33.7303,33.7273,,33.7292,33.7298,5.7480,,6.0774,6.0949,5.8327,,6.1009,6.1010,6.0980,250.398,264.2649,261.9408,254.086,275.5590,262.6638,262.3023,0.0639,,0.2531,0.3268,2.6211,,3.7972,,25.1961,,25.1947,,,,,,,,,,,14.0427,14.0431,0.0120,276.283,98.283,99.730,,,,,,,,,,,,
CalCOFI,2105SH,008,,2105_008d,05-May-2021 18:03:05,05-May-2021 10:03:05,32.01359,-119.23323,093.3 055.0,093.3,055.0,7.000,7.049,,14.0006,,13.9960,,13.9983,33.7340,,33.7352,33.7291,,33.7310,33.7331,5.7723,,6.1028,6.1202,5.8434,,6.1120,6.1120,6.1161,251.451,265.3657,263.0354,254.550,276.6963,263.1409,263.0882,0.0665,,0.2722,0.3432,2.6210,,3.7972,,25.2089,,25.2060,,,,,,,,,,,13.9996,13.9950,0.0148,275.096,98.614,99.817,,,,,,,,,,,,
CalCOFI,2105SH,008,,2105_008d,05-May-2021 18:03:07,05-May-2021 10:03:07,32.01358,-119.23322,093.3 055.0,093.3,055.0,8.000,8.056,,13.5554,,13.5455,,13.5505,33.7523,,33.7535,33.7295,,33.7314,33.7425,5.8231,,6.1559,6.1732,5.8961,,6.1666,6.1663,6.1698,253.640,267.6541,265.3108,256.824,279.0604,265.4792,265.3950,0.0824,,0.3882,0.4435,2.6203,,3.7972,,25.3148,,25.2992,,,,,,,,,,,13.5543,13.5444,0.0175,265.048,98.597,99.799,,,,,,,,,,,,
CalCOFI,2105SH,008,,2105_008d,05-May-2021 18:03:08,05-May-2021 10:03:08,32.01358,-119.23322,093.3 055.0,093.3,055.0,9.000,9.063,,13.4827,,13.4820,,13.4824,33.7404,,33.7416,33.7319,,33.7338,33.7377,5.8021,,6.1339,6.1513,5.8939,,6.1643,6.1641,6.1577,252.722,266.6944,264.3565,256.725,278.0690,265.3774,264.8670,0.0940,,0.4721,0.5168,2.6194,,3.7972,,25.3204,,25.3140,,,,,,,,,,,13.4815,13.4807,0.0202,264.543,98.088,99.634,,,,,,,,,,,,
CalCOFI,2105SH,008,,2105_008d,05-May-2021 18:03:09,05-May-2021 10:03:09,32.01358,-119.23321,093.3 055.0,093.3,055.0,10.000,10.070,,13.4554,,13.4557,,13.4556,33.7377,,33.7389,33.7324,,33.7343,33.7366,5.8045,,6.1364,6.1538,5.8824,,6.1524,6.1522,6.1530,252.827,266.8041,264.4657,256.221,278.1824,264.8592,264.6625,0.1047,,0.5489,0.5843,2.6178,,3.7972,,25.3239,,25.3197,,,,,,,,,,,13.4540,13.4543,0.0229,264.239,98.072,99.385,10,13.463,,,265.39,0.980,0.331,5.71,0.116,0.63,0.66,4.02
CalCOFI,2105SH,008,,2105_008d,05-May-2021 18:03:12,05-May-2021 10:03:12,32.01358,-119.23320,093.3 055.0,093.3,055.0,11.000,11.077,,13.4341,,13.4342,,13.4342,33.7345,,33.7357,33.7310,,33.7329,33.7343,5.7868,,6.1179,6.1354,5.8660,,6.1354,6.1353,6.1354,252.054,265.9961,263.6622,255.505,277.3475,264.1229,263.8926,0.1128,,0.6066,0.6354,2.6145,,3.7972,,25.3258,,25.3230,,,,,,,,,,,13.4326,13.4327,0.0255,264.085,97.728,99.064,,,,,,,,,,,,
CalCOFI,2105SH,008,,2105_008d,05-May-2021 18:03:14,05-May-2021 10:03:14,32.01357,-119.23320,093.3 055.0,093.3,055.0,12.000,12.085,,13.4244,,13.4244,,13.4244,33.7336,,33.7348,33.7304,,33.7323,33.7336,5.7572,,6.0870,6.1045,5.8606,,6.1298,6.1298,6.1172,250.767,264.6506,262.3243,255.269,275.9576,263.8802,263.1023,0.1243,,0.6881,0.7080,2.6113,,3.7972,,25.3271,,25.3246,,,,,,,,,,,13.4228,13.4227,0.0282,263.987,97.210,98.952,,,,,,,,,,,,
CalCOFI,2105SH,008,,2105_008d,05-May-2021 18:03:15,05-May-2021 10:03:15,32.01356,-119.23320,093.3 055.0,093.3,055.0,13.000,13.092,,13.4031,,13.4028,,13.4030,33.7313,,33.7325,33.7280,,33.7299,33.7312,5.7726,,6.1031,6.1206,5.8589,,6.1280,6.1280,6.1243,251.436,265.3500,263.0198,255.194,276.6801,263.8031,263.4115,0.1271,,0.7079,0.7257,2.6086,,3.7972,,25.3296,,25.3271,,,,,,,,,,,13.4013,13.4010,0.0308,263.776,97.425,98.878,,,,,,,,,,,,
CalCOFI,2105SH,008,,2105_008d,05-May-2021 18:03:16,05-May-2021 10:03:16,32.01356,-119.23320,093.3 055.0,093.3,055.0,14.000,14.099,,13.3925,,13.3923,,13.3924,33.7334,,33.7346,33.7304,,33.7323,33.7335,5.7671,,6.0973,6.1148,5.8351,,6.1034,6.1035,6.1092,251.193,265.0960,262.7672,254.158,276.4176,262.7378,262.7525,0.1682,,0.9933,0.9851,2.6052,,3.7972,,25.3334,,25.3312,,,,,,,,,,,13.3906,13.3904,0.0335,263.441,97.312,98.458,,,,,,,,,,,,
CalCOFI,2105SH,008,,2105_008d,05-May-2021 18:03:18,05-May-2021 10:03:18,32.01356,-119.23320,093.3 055.0,093.3,055.0,15.000,15.106,,13.3642,,13.3641,,13.3642,33.7324,,33.7336,33.7294,,33.7313,33.7325,5.7685,,6.0988,6.1163,5.8330,,6.1012,6.1013,6.1088,251.256,265.1618,262.8326,254.065,276.4857,262.6422,262.7374,0.1756,,1.0439,1.0318,2.6008,,3.7972,,25.3384,,25.3361,,,,,,,,,,,13.3621,13.3620,0.0362,262.993,97.279,98.364,,,,,,,,,,,,
CalCOFI,2105SH,008,,2105_008d,05-May-2021 18:03:20,05-May-2021 10:03:20,32.01356,-119.23319,093.3 055.0,093.3,055.0,16.000,16.113,,13.3365,,13.3362,,13.3364,33.7317,,33.7329,33.7284,,33.7303,33.7316,5.7674,,6.0976,6.1151,5.8317,,6.0999,6.1000,6.1076,251.208,265.1116,262.7828,254.009,276.4338,262.5846,262.6837,0.2028,,1.2274,1.2034,2.5970,,3.7972,,25.3435,,25.3410,,,,,,,,,,,13.3343,13.3340,0.0388,262.537,97.205,98.286,,,,,,,,,,,,
CalCOFI,2105SH,008,,2105_008d,05-May-2021 18:03:22,05-May-2021 10:03:22,32.01356,-119.23318,093.3 055.0,093.3,055.0,17.000,17.120,,13.3245,,13.3248,,13.3247,33.7304,,33.7316,33.7285,,33.7304,33.7310,5.7653,,6.0955,6.1129,5.8227,,6.0906,6.0907,6.1018,251.112,265.0113,262.6830,253.615,276.3302,262.1794,262.4312,0.1966,,1.1859,1.1643,2.5925,,3.7972,,25.3450,,25.3434,,,,,,,,,,,13.3221,13.3224,0.0414,262.427,97.144,98.111,,,,,,,,,,,,
CalCOFI,2105SH,008,,2105_008d,05-May-2021 18:03:24,05-May-2021 10:03:24,32.01356,-119.23318,093.3 055.0,093.3,055.0,18.000,18.127,,13.3105,,13.3108,,13.3107,33.7291,,33.7303,33.7270,,33.7289,33.7296,5.7352,,6.0640,6.0815,5.8108,,6.0782,6.0784,6.0800,249.802,263.6418,261.3213,253.098,274.9154,261.6478,261.4846,0.1813,,1.0826,1.0677,2.5875,,3.7972,,25.3468,,25.3451,,,,,,,,,,,13.3080,13.3083,0.0441,262.280,96.608,97.882,,,,,,,,,,,,
CalCOFI,2105SH,008,,2105_008d,05-May-2021 18:03:25,05-May-2021 10:03:25,32.01356,-119.23318,093.3 055.0,093.3,055.0,19.000,19.134,,13.3009,,13.3011,,13.3010,33.7282,,33.7294,33.7265,,33.7284,33.7289,5.7098,,6.0374,6.0551,5.8000,,6.0670,6.0673,6.0612,248.697,262.4866,260.1726,252.625,273.7220,261.1614,260.6670,0.2132,,1.2966,1.2691,2.5842,,3.7972,,25.3480,,25.3467,,,,,,,,,,,13.2983,13.2985,0.0467,262.192,96.162,97.680,,,,,,,,,,,,
CalCOFI,2105SH,008,,2105_008d,05-May-2021 18:03:27,05-May-2021 10:03:27,32.01355,-119.23317,093.3 055.0,093.3,055.0,20.000,20.141,,13.2908,,13.2909,,13.2909,33.7274,,33.7286,33.7256,,33.7275,33.7281,5.7127,,6.0404,6.0581,5.7951,,6.0620,6.0623,6.0602,248.821,262.6163,260.3015,252.413,273.8559,260.9435,260.6225,0.1979,,1.1946,1.1725,2.5807,,3.7972,,25.3495,,25.3480,,,,,,,,,,,13.2880,13.2882,0.0494,262.081,96.189,97.577,,,,,,,,,,,,
CalCOFI,2105SH,008,,2105_008d,05-May-2021 18:03:29,05-May-2021 10:03:29,32.01354,-119.23316,093.3 055.0,093.3,055.0,21.000,21.148,,13.2787,,13.2791,,13.2789,33.7262,,33.7274,33.7246,,33.7265,33.7270,5.7167,,6.0446,6.0622,5.7721,,6.0381,6.0386,6.0504,248.994,262.7971,260.4814,251.408,274.0427,259.9100,260.1957,0.2308,,1.4126,1.3802,2.5747,,3.7972,,25.3510,,25.3497,,,,,,,,,,,13.2758,13.2762,0.0520,261.963,96.232,97.164,,,,,,,,,,,,
CalCOFI,2105SH,008,,2105_008d,05-May-2021 18:03:31,05-May-2021 10:03:31,32.01354,-119.23316,093.3 055.0,093.3,055.0,22.000,22.156,,13.2568,,13.2571,,13.2570,33.7232,,33.7244,33.7210,,33.7229,33.7237,5.6552,,5.9803,5.9981,5.7324,,5.9970,5.9977,5.9979,246.316,259.9975,257.6976,249.680,271.1505,258.1331,257.9154,0.2314,,1.4165,1.3839,2.5687,,3.7972,,25.3531,,25.3513,,,,,,,,,,,13.2538,13.2541,0.0546,261.790,95.152,96.451,,,,,,,,,,,,
CalCOFI,2105SH,008,,2105_008d,05-May-2021 18:03:33,05-May-2021 10:03:33,32.01354,-119.23314,093.3 055.0,093.3,055.0,23.000,23.163,,13.2250,,13.2241,,13.2246,33.7171,,33.7183,33.7144,,33.7163,33.7173,5.6638,,5.9893,6.0071,5.7319,,5.9965,5.9972,6.0022,246.690,260.3885,258.0864,249.658,271.5544,258.1105,258.0985,0.2577,,1.5870,1.5499,2.5639,,3.7972,,25.3548,,25.3529,,,,,,,,,,,13.2218,13.2209,0.0573,261.655,95.231,96.373,,,,,,,,,,,,
CalCOFI,2105SH,008,,2105_008d,05-May-2021 18:03:34,05-May-2021 10:03:34,32.01354,-119.23314,093.3 055.0,093.3,055.0,24.000,24.170,,13.2228,,13.2238,,13.2233,33.7173,,33.7185,33.7171,,33.7190,33.7188,5.6757,,6.0017,6.0195,5.7333,,5.9980,5.9986,6.0091,247.211,260.9332,258.6280,249.719,272.1171,258.1732,258.4006,0.2135,,1.2986,1.2710,2.5590,,3.7972,,25.3555,,25.3551,,,,,,,,,,,13.2195,13.2205,0.0599,261.618,95.428,96.398,,,,,,,,,,,,
CalCOFI,2105SH,008,,2105_008d,05-May-2021 18:03:36,05-May-2021 10:03:36,32.01353,-119.23314,093.3 055.0,093.3,055.0,25.000,25.177,,13.2323,,13.2330,,13.2327,33.7211,,33.7223,33.7206,,33.7225,33.7224,5.6871,,6.0137,6.0314,5.7272,,5.9916,5.9923,6.0119,247.706,261.4507,259.1425,249.452,272.6517,257.8987,258.5206,0.2162,,1.3165,1.2880,2.5535,,3.7972,,25.3565,,25.3560,,,,,,,,,,,13.2289,13.2296,0.0625,261.550,95.641,96.316,,,,,,,,,,,,
CalCOFI,2105SH,008,,2105_008d,05-May-2021 18:03:39,05-May-2021 10:03:39,32.01352,-119.23314,093.3 055.0,093.3,055.0,26.000,26.184,,13.2359,,13.2366,,13.2363,33.7225,,33.7237,33.7223,,33.7242,33.7240,5.6615,,5.9869,6.0047,5.7145,,5.9785,5.9792,5.9920,246.588,260.2819,257.9803,248.899,271.4442,257.3300,257.6552,0.2247,,1.3725,1.3417,2.5482,,3.7972,,25.3569,,25.3566,,,,,,,,,,,13.2323,13.2330,0.0652,261.540,95.217,96.110,,,,,,,,,,,,
CalCOFI,2105SH,008,,2105_008d,05-May-2021 18:03:40,05-May-2021 10:03:40,32.01352,-119.23313,093.3 055.0,093.3,055.0,27.000,27.191,,13.2379,,13.2383,,13.2381,33.7235,,33.7247,33.7231,,33.7250,33.7249,5.6399,,5.9643,5.9821,5.7154,,5.9794,5.9802,5.9812,245.649,259.3003,257.0043,248.939,270.4301,257.3712,257.1878,0.2182,,1.3297,1.3006,2.5442,,3.7972,,25.3573,,25.3569,,,,,,,,,,,13.2342,13.2346,0.0678,261.525,94.858,96.130,,,,,,,,,,,,
CalCOFI,2105SH,008,,2105_008d,05-May-2021 18:03:42,05-May-2021 10:03:42,32.01352,-119.23312,093.3 055.0,093.3,055.0,28.000,28.198,,13.2381,,13.2385,,13.2383,33.7238,,33.7250,33.7235,,33.7254,33.7252,5.6451,,5.9697,5.9876,5.7141,,5.9781,5.9788,5.9832,245.874,259.5355,257.2382,248.880,270.6731,257.3105,257.2744,0.2329,,1.4263,1.3934,2.5405,,3.7972,,25.3575,,25.3572,,,,,,,,,,,13.2343,13.2347,0.0704,261.537,94.946,96.108,,,,,,,,,,,,
CalCOFI,2105SH,008,,2105_008d,05-May-2021 18:03:44,05-May-2021 10:03:44,32.01352,-119.23312,093.3 055.0,093.3,055.0,29.000,29.206,,13.2371,,13.2374,,13.2373,33.7240,,33.7252,33.7237,,33.7256,33.7254,5.6336,,5.9577,5.9756,5.7074,,5.9711,5.9719,5.9738,245.373,259.0117,256.7174,248.589,270.1320,257.0112,256.8643,0.2388,,1.4648,1.4307,2.5383,,3.7972,,25.3579,,25.3576,,,,,,,,,,,13.2331,13.2335,0.0731,261.527,94.751,95.993,29,13.269,,,256.24,1.481,0.723,6.75,0.125,0.64,0.75,5.33
CalCOFI,2105SH,008,,2105_008d,05-May-2021 18:03:45,05-May-2021 10:03:45,32.01352,-119.23312,093.3 055.0,093.3,055.0,30.000,30.213,,13.2371,,13.2374,,13.2373,33.7239,,33.7251,33.7237,,33.7256,33.7254,5.6506,,5.9755,5.9933,5.7024,,5.9659,5.9668,5.9801,246.116,259.7885,257.4897,248.372,270.9345,256.7881,257.1389,0.2114,,1.2847,1.2577,2.5370,,3.7972,,25.3578,,25.3576,,,,,,,,,,,13.2330,13.2333,0.0757,261.561,95.038,95.909,,,,,,,,,,,,
CalCOFI,2105SH,008,,2105_008d,05-May-2021 18:03:47,05-May-2021 10:03:47,32.01352,-119.23312,093.3 055.0,093.3,055.0,31.000,31.220,,13.2372,,13.2376,,13.2374,33.7239,,33.7251,33.7236,,33.7255,33.7253,5.6479,,5.9727,5.9905,5.7102,,5.9740,5.9748,5.9827,245.999,259.6662,257.3681,248.709,270.8081,257.1346,257.2514,0.2283,,1.3962,1.3644,2.5352,,3.7972,,25.3578,,25.3576,,,,,,,,,,,13.2330,13.2334,0.0783,261.591,94.993,96.040,,,,,,,,,,,,
CalCOFI,2105SH,008,,2105_008d,05-May-2021 18:03:50,05-May-2021 10:03:50,32.01352,-119.23310,093.3 055.0,093.3,055.0,32.000,32.227,,13.2364,,13.2368,,13.2366,33.7237,,33.7249,33.7236,,33.7255,33.7252,5.6374,,5.9617,5.9795,5.7100,,5.9738,5.9746,5.9771,245.540,259.1863,256.8910,248.700,270.3124,257.1254,257.0082,0.2166,,1.3191,1.2905,2.5321,,3.7972,,25.3579,,25.3577,,,,,,,,,,,13.2320,13.2324,0.0810,261.613,94.814,96.035,,,,,,,,,,,,
CalCOFI,2105SH,008,,2105_008d,05-May-2021 18:03:52,05-May-2021 10:03:52,32.01352,-119.23310,093.3 055.0,093.3,055.0,33.000,33.234,,13.2306,,13.2311,,13.2309,33.7232,,33.7244,33.7228,,33.7247,33.7246,5.6409,,5.9654,5.9832,5.7023,,5.9658,5.9667,5.9750,245.694,259.3473,257.0511,248.369,270.4787,256.7850,256.9181,0.2171,,1.3224,1.2937,2.5287,,3.7972,,25.3587,,25.3583,,,,,,,,,,,13.2260,13.2266,0.0836,261.561,94.862,95.895,,,,,,,,,,,,
CalCOFI,2105SH,008,,2105_008d,05-May-2021 18:03:53,05-May-2021 10:03:53,32.01350,-119.23310,093.3 055.0,093.3,055.0,34.000,34.241,,13.2229,,13.2255,,13.2242,33.7224,,33.7236,33.7217,,33.7236,33.7236,5.6345,,5.9587,5.9765,5.6654,,5.9276,5.9286,5.9526,245.413,259.0536,256.7590,246.760,270.1752,255.1305,255.9448,0.2496,,1.5348,1.4988,2.5236,,3.7972,,25.3597,,25.3585,,,,,,,,,,,13.2183,13.2208,0.0862,261.497,94.738,95.262,,,,,,,,,,,,
CalCOFI,2105SH,008,,2105_008d,05-May-2021 18:03:55,05-May-2021 10:03:55,32.01350,-119.23309,093.3 055.0,093.3,055.0,35.000,35.249,,13.1983,,13.1981,,13.1982,33.7185,,33.7197,33.7165,,33.7184,33.7191,5.4951,,5.8129,5.8311,5.4976,,5.7538,5.7558,5.7935,239.339,252.7038,250.4451,239.448,263.6153,247.6116,249.0284,0.2148,,1.3072,1.2792,2.5145,,3.7972,,25.3616,,25.3601,,,,,,,,,,,13.1934,13.1933,0.0889,261.340,92.344,92.385,,,,,,,,,,,,
CalCOFI,2105SH,008,,2105_008d,05-May-2021 18:03:57,05-May-2021 10:03:57,32.01350,-119.23308,093.3 055.0,093.3,055.0,36.000,36.256,,13.0554,,13.0536,,13.0545,33.7003,,33.7015,33.6893,,33.6912,33.6964,5.3822,,5.6948,5.7133,5.4508,,5.7053,5.7076,5.7105,234.422,247.5636,245.3340,237.410,258.3049,245.5159,245.4250,0.2101,,1.2760,1.2495,2.5027,,3.7972,,25.3760,,25.3678,,,,,,,,,,,13.0505,13.0487,0.0915,259.989,90.172,91.311,,,,,,,,,,,,
CalCOFI,2105SH,008,,2105_008d,05-May-2021 18:03:59,05-May-2021 10:03:59,32.01350,-119.23308,093.3 055.0,093.3,055.0,37.000,37.263,,12.9781,,12.9714,,12.9748,33.6888,,33.6900,33.6839,,33.6858,33.6879,5.3905,,5.7035,5.7220,5.4497,,5.7042,5.7064,5.7142,234.782,247.9399,245.7082,237.359,258.6937,245.4635,245.5859,0.1970,,1.1885,1.1668,2.4912,,3.7972,,25.3825,,25.3800,,,,,,,,,,,12.9731,12.9663,0.0941,259.393,90.161,91.135,,,,,,,,,,,,
CalCOFI,2105SH,008,,2105_008d,05-May-2021 18:04:01,05-May-2021 10:04:01,32.01350,-119.23308,093.3 055.0,093.3,055.0,38.000,38.270,,12.9512,,12.9533,,12.9523,33.6855,,33.6867,33.6832,,33.6851,33.6859,5.3552,,5.6666,5.6852,5.4277,,5.6814,5.6838,5.6845,233.244,246.3321,244.1095,236.401,257.0327,244.4784,244.2940,0.1922,,1.1563,1.1365,2.4765,,3.7972,,25.3853,,25.3831,,,,,,,,,,,12.9460,12.9481,0.0967,259.147,89.519,90.733,,,,,,,,,,,,
CalCOFI,2105SH,008,,2105_008d,05-May-2021 18:04:03,05-May-2021 10:04:03,32.01350,-119.23308,093.3 055.0,093.3,055.0,39.000,39.277,,12.9270,,12.9234,,12.9252,33.6837,,33.6849,33.6804,,33.6823,33.6836,5.3414,,5.6521,5.6708,5.4088,,5.6618,5.6643,5.6676,232.643,245.7038,243.4848,235.577,256.3836,243.6311,243.5580,0.2039,,1.2347,1.2104,2.4586,,3.7972,,25.3887,,25.3869,,,,,,,,,,,12.9217,12.9181,0.0993,258.850,89.243,90.360,,,,,,,,,,,,
CalCOFI,2105SH,008,,2105_008d,05-May-2021 18:04:05,05-May-2021 10:04:05,32.01350,-119.23308,093.3 055.0,093.3,055.0,40.000,40.285,,12.9017,,12.9009,,12.9013,33.6812,,33.6824,33.6790,,33.6809,33.6817,5.3266,,5.6367,5.6553,5.3812,,5.6332,5.6358,5.6456,231.994,245.0253,242.8102,234.373,255.6827,242.3930,242.6016,0.2072,,1.2567,1.2312,2.4415,,3.7972,,25.3918,,25.3902,,,,,,,,,,,12.8963,12.8955,0.1019,258.581,88.947,89.856,,,,,,,,,,,,
CalCOFI,2105SH,008,,2105_008d,05-May-2021 18:04:07,05-May-2021 10:04:07,32.01350,-119.23308,093.3 055.0,093.3,055.0,41.000,41.292,,12.8748,,12.8695,,12.8722,33.6786,,33.6798,33.6753,,33.6772,33.6785,5.2709,,5.5784,5.5972,5.3597,,5.6110,5.6137,5.6055,229.568,242.4892,240.2884,233.436,253.0626,241.4295,240.8590,0.1944,,1.1711,1.1504,2.4238,,3.7972,,25.3951,,25.3936,,,,,,,,,,,12.8693,12.8640,0.1046,258.292,87.966,89.437,,,,,,,,,,,,
CalCOFI,2105SH,008,,2105_008d,05-May-2021 18:04:09,05-May-2021 10:04:09,32.01349,-119.23306,093.3 055.0,093.3,055.0,42.000,42.299,,12.8506,,12.8504,,12.8505,33.6752,,33.6764,33.6734,,33.6753,33.6759,5.2639,,5.5711,5.5899,5.3414,,5.5920,5.5948,5.5924,229.263,242.1703,239.9713,232.638,252.7332,240.6089,240.2901,0.1866,,1.1185,1.1012,2.4106,,3.7972,,25.3973,,25.3959,,,,,,,,,,,12.8450,12.8448,0.1072,258.109,87.804,89.095,,,,,,,,,,,,
CalCOFI,2105SH,008,,2105_008d,05-May-2021 18:04:10,05-May-2021 10:04:10,32.01348,-119.23306,093.3 055.0,093.3,055.0,43.000,43.306,,12.8374,,12.8358,,12.8366,33.6752,,33.6764,33.6731,,33.6750,33.6757,5.2566,,5.5635,5.5823,5.3071,,5.5565,5.5595,5.5709,228.943,241.8358,239.6387,231.146,252.3876,239.0747,239.3567,0.1932,,1.1630,1.1428,2.4031,,3.7972,,25.3999,,25.3986,,,,,,,,,,,12.8316,12.8301,0.1098,257.885,87.658,88.497,,,,,,,,,,,,
CalCOFI,2105SH,008,,2105_008d,05-May-2021 18:04:12,05-May-2021 10:04:12,32.01348,-119.23306,093.3 055.0,093.3,055.0,44.000,44.314,,12.7932,,12.8000,,12.7966,33.6727,,33.6739,33.6687,,33.6706,33.6723,5.2465,,5.5529,5.5718,5.3002,,5.5493,5.5524,5.5621,228.502,241.3748,239.1803,230.843,251.9113,238.7631,238.9717,0.2000,,1.2086,1.1858,2.3962,,3.7972,,25.4067,,25.4022,,,,,,,,,,,12.7873,12.7940,0.1124,257.265,87.408,88.313,,,,,,,,,,,,
CalCOFI,2105SH,008,,2105_008d,05-May-2021 18:04:13,05-May-2021 10:04:13,32.01348,-119.23306,093.3 055.0,093.3,055.0,45.000,45.321,,12.7700,,12.7683,,12.7692,33.6677,,33.6689,33.6654,,33.6673,33.6681,5.2272,,5.5327,5.5517,5.2789,,5.5273,5.5304,5.5411,227.664,240.4987,238.3092,229.916,251.0063,237.8099,238.0596,0.2039,,1.2347,1.2104,2.3866,,3.7972,,25.4074,,25.4059,,,,,,,,,,,12.7640,12.7623,0.1149,257.222,87.043,87.900,,,,,,,,,,,,
CalCOFI,2105SH,008,,2105_008d,05-May-2021 18:04:16,05-May-2021 10:04:16,32.01348,-119.23306,093.3 055.0,093.3,055.0,46.000,46.328,,12.7505,,12.7475,,12.7490,33.6644,,33.6656,33.6616,,33.6635,33.6646,5.1937,,5.4977,5.5167,5.2447,,5.4919,5.4952,5.5060,226.205,238.9735,236.7926,228.423,249.4305,236.2747,236.5337,0.1872,,1.1226,1.1050,2.3738,,3.7972,,25.4087,,25.4071,,,,,,,,,,,12.7444,12.7413,0.1175,257.123,86.449,87.289,,,,,,,,,,,,
CalCOFI,2105SH,008,,2105_008d,05-May-2021 18:04:18,05-May-2021 10:04:18,32.01348,-119.23306,093.3 055.0,093.3,055.0,47.000,47.335,,12.7188,,12.7180,,12.7184,33.6595,,33.6607,33.6568,,33.6587,33.6597,5.1396,,5.4411,5.4603,5.1766,,5.4213,5.4251,5.4427,223.844,236.5053,234.3384,225.458,246.8806,233.2258,233.7821,0.1785,,1.0636,1.0501,2.3568,,3.7972,,25.4111,,25.4092,,,,,,,,,,,12.7125,12.7117,0.1201,256.919,85.488,86.101,,,,,,,,,,,,
CalCOFI,2105SH,008,,2105_008d,05-May-2021 18:04:20,05-May-2021 10:04:20,32.01348,-119.23304,093.3 055.0,093.3,055.0,48.000,48.342,,12.6670,,12.6674,,12.6672,33.6560,,33.6572,33.6509,,33.6528,33.6550,5.0702,,5.3685,5.3879,5.1179,,5.3605,5.3646,5.3763,220.822,233.3461,231.1971,222.902,243.6169,230.5975,230.8973,0.1811,,1.0813,1.0665,2.3402,,3.7972,,25.4185,,25.4145,,,,,,,,,,,12.6605,12.6610,0.1227,256.236,84.242,85.033,,,,,,,,,,,,
CalCOFI,2105SH,008,,2105_008d,05-May-2021 18:04:21,05-May-2021 10:04:21,32.01348,-119.23304,093.3 055.0,093.3,055.0,49.000,49.350,,12.6058,,12.6061,,12.6060,33.6509,,33.6521,33.6462,,33.6481,33.6501,4.9995,,5.2946,5.3141,4.9952,,5.2334,5.2382,5.2762,217.743,230.1273,227.9965,217.553,240.2915,225.0971,226.5468,0.1776,,1.0575,1.0444,2.3168,,3.7972,,25.4266,,25.4228,,,,,,,,,,,12.5993,12.5996,0.1253,255.493,82.960,82.886,,,,,,,,,,,,
CalCOFI,2105SH,008,,2105_008d,05-May-2021 18:04:24,05-May-2021 10:04:24,32.01348,-119.23304,093.3 055.0,093.3,055.0,50.000,50.357,,12.4977,,12.4992,,12.4985,33.6399,,33.6411,33.6322,,33.6341,33.6376,4.5497,,4.8242,4.8450,4.4366,,4.6548,4.6627,4.7539,198.148,209.6427,207.6278,193.226,219.1289,200.0818,203.8548,0.1596,,0.9343,0.9308,2.2694,,3.7972,,25.4390,,25.4327,,,,,,,,,,,12.4911,12.4926,0.1279,254.330,75.322,73.449,,,,,,,,,,,,
CalCOFI,2105SH,008,,2105_008d,05-May-2021 18:04:25,05-May-2021 10:04:25,32.01346,-119.23304,093.3 055.0,093.3,055.0,51.000,51.364,,12.0301,,12.0220,,12.0261,33.6286,,33.6298,33.5869,,33.5888,33.6093,4.1998,,4.4583,4.4800,4.2026,,4.4125,4.4216,4.4508,182.897,193.6993,191.7747,183.024,202.6578,189.5912,190.6830,0.1307,,0.7332,0.7484,2.2272,,3.7972,,25.5195,,25.4886,,,,,,,,,,,12.0235,12.0154,0.1304,246.657,68.849,68.864,51,11.493,,,188.81,0.298,0.509,14.18,0.071,0.05,1.25,12.87
CalCOFI,2105SH,008,,2105_008d,05-May-2021 18:04:27,05-May-2021 10:04:27,32.01346,-119.23304,093.3 055.0,093.3,055.0,52.000,52.372,,11.6757,,11.6754,,11.6756,33.5986,,33.5998,33.5771,,33.5790,33.5894,4.1296,,4.3848,4.4068,4.1795,,4.3885,4.3978,4.4023,179.829,190.4920,188.5855,182.005,199.3443,188.5433,188.5644,0.0868,,0.4201,0.4713,2.1886,,3.7972,,25.5625,,25.5459,,,,,,,,,,,11.6691,11.6688,0.1328,242.556,67.181,67.982,,,,,,,,,,,,
CalCOFI,2105SH,008,,2105_008d,05-May-2021 18:04:29,05-May-2021 10:04:29,32.01347,-119.23304,093.3 055.0,093.3,055.0,53.000,53.379,,11.5652,,11.5651,,11.5652,33.5892,,33.5904,33.5779,,33.5798,33.5851,4.0661,,4.3184,4.3405,4.1196,,4.3265,4.3361,4.3383,177.063,187.6005,185.7103,179.396,196.3570,185.8605,185.7854,0.0797,,0.3686,0.4265,2.1333,,3.7972,,25.5757,,25.5669,,,,,,,,,,,11.5586,11.5584,0.1353,241.315,65.989,66.853,,,,,,,,,,,,
CalCOFI,2105SH,008,,2105_008d,05-May-2021 18:04:31,05-May-2021 10:04:31,32.01346,-119.23302,093.3 055.0,093.3,055.0,54.000,54.386,,11.4996,,11.4994,,11.4995,33.5906,,33.5918,33.5813,,33.5832,33.5875,3.9769,,4.2251,4.2475,4.0434,,4.2476,4.2576,4.2526,173.176,183.5370,181.6699,176.074,192.1591,182.4445,182.0572,0.0712,,0.3066,0.3729,2.0658,,3.7972,,25.5888,,25.5816,,,,,,,,,,,11.4928,11.4927,0.1377,240.084,64.452,65.526,,,,,,,,,,,,
CalCOFI,2105SH,008,,2105_008d,05-May-2021 18:04:33,05-May-2021 10:04:33,32.01346,-119.23302,093.3 055.0,093.3,055.0,55.000,55.393,,11.3945,,11.3943,,11.3944,33.6035,,33.6047,33.5943,,33.5962,33.6005,3.9635,,4.2111,4.2335,4.0426,,4.2467,4.2567,4.2451,172.589,182.9233,181.0597,176.035,191.5251,182.4044,181.7321,0.0681,,0.2839,0.3533,2.0105,,3.7972,,25.6182,,25.6110,,,,,,,,,,,11.3877,11.3875,0.1401,237.311,64.098,65.373,,,,,,,,,,,,